Location: Milton Keynes
(52.0316°N, 0.7531°W)
Time: 01:13:12
(UTC+00:00)

Genesis I - Pass Details

Date: 29 January 2019
Orbit: 476 x 550 km, 64.5° (Epoch: 19 February)

Event Time Altitude Azimuth Distance (km) Brightness Sun altitude
Exits shadow 05:06:38 29° 11° (N) 1,027 4.7 -24.7°
Drops below altitude 10° 05:09:04 10° 35° (NE) 1,837 6.4 -24.3°
Sets 05:11:23 0° 42° (NE) 2,734 7.5 -24.0°
